Location: Andiroba
(19.8650°S, 43.9258°W)
Time: 01:16:15
(UTC+00:00)

Gblst 52 Del rocket - Pass Details

Date: 15 June 2024
Orbit: 805 x 1364 km, 51.5° (Epoch: 24 July)

Event Time Altitude Azimuth Distance (km) Brightness Sun altitude
Exits shadow 08:10:29 20° 208° (SSW) 1,859 5.6 -17.8°
Maximum altitude 08:14:27 65° 130° (SE) 891 4.4 -16.9°
Drops below altitude 10° 08:19:52 10° 48° (NE) 2,382 7.7 -15.7°
Sets 08:22:21 0° 45° (NE) 3,329 8.5 -15.2°
